Showing default

ADRAS-J, 58992

Orbit data source: Space-Track

ADRAS-J, 58992 is a payload satellite owned by Astroscale (JP) in SSO that was launched on Sun, 18 Feb 2024 UTC via an ELECTRON launch vehicle from the Rocket Lab Launch Complex (RLLC). Payload-class satellites include a variety of spacecraft equipped with specific instruments for various scientific and technological missions. These include communications satellites like Starlink; space stations such as the ISS; scientific satellites like the Hubble; Earth observation satellites from companies like Planet Labs, Umbra, and HawkEye 360; GPS; miniature CubeSats for education and research; and military/defense satellites.

Loading next visibility...
Identifier
58992, 2024-034A
Orbit
SSO
Country
Flag of JPJP / JPN
Related business
Manufacturer
Astroscale
Mission
Operational Commercial Technology
Bus & Motor
ELSA, Unknown motor
Mass
150 kg wet, ~120 kg dry
Launch date (UTC)
2024-02-18 (2 years ago)
Launch vehicle
ELECTRON
Launch site
Rocket Lab Launch Complex (RLLC)
Object type
Payload
Rocket body
Debris
Shape & HBR
Box + 2 Pan, 2.0 m
Radar Cross Section
1.913 m², Large (>1 m²)

Expand to show TLE details & history
Last TLE update: 11 hours ago

TLE from 11 hours ago
0 ADRAS-J
1 58992U 24034A   26039.90109380  .00002003  00000-0  13763-3 0  9994
2 58992  98.2283  57.2367 0045132 199.7102 160.2381 15.06465321107979
Epoch: 2026-02-08T21:37Z
TLE epoch observation values (Epoch: 2026-02-08T21:37:34.504Z)
Latitude
-0.00001°
Longitude
-46.16068°
Altitude
579.495 km
Speed
7.555 km/s
True Right ascension
03h 48m 56s
True Declination
0° 00' 00"
Sunlit
Object was in daylight at epoch
Visualization orbit readout
Latitude
Unknown
Longitude
Unknown
Altitude
Unknown
Speed
Unknown
Apparent Right ascension
Unknown
Apparent Declination
Unknown
Sunlit
N/A
Visualization observer readout
Local Sidereal Time
11:01:04
Azimuth
Unknown
Elevation
Unknown
Doppler factor
Unknown
Orbital elements
Apogee altitude
575.273 km
Perigee altitude
512.791 km
Semi-major axis
6,922.169 km
Eccentricity
0.00451
Inclination
98.2283°
RAAN
57.2367°
Arg. of periapsis
199.7102°
True anomaly
160.41204°
Mean anomaly
160.2381°
Eccentric anomaly
160.32516°
Mean motion
3.7686 °/min
Orbital period
95.53 mins
BSTAR
0.00013763
Loading maneuver chart data...
Computing Atmospheric mass density...
Loading historical data...
Loading historical data...
Loading historical data...
Loading historical data...
Loading historical data...
Loading historical data...
Loading historical data...
Other satellites on launch #34 in the year 2024 (2024-02-18 UTC)

Documentation

Showing up to 5 results
|